Погода в Пиндиншане

Китай     33°43′53″N   113°21′00″E
темп.,
°C
ветер,
м/с
пор.,
м/с
влажн.,
%
обл.,
%
осадки,
мм/ч
давл.,
гПа
погр.,
м
18 мая, вт
вт1823:00+17ююз237234 0.0 101262
02:00+16ююз228182 0.0 101230
05:00+15ююз228435 0.0 101130
08:00+19юз126695 0.0 1012247
11:00+25юз223971 0.0 1011943
14:00+28юз2232100 0.0 10091808
17:00+27ю3236100 0.0 10071227
20:00+21ююз41068100 0.0 1009285
19 мая, ср
ср1923:00+19ююз3768100 0.0 1010200
02:00+19ю2270100 0.0 100947
05:00+18ююз2477100 0.0 1009111
08:00+20ю2468100 0.0 1009277
11:00+25ююз4547100 0.0 1009995
14:00+25ююз5544100 0.0 10071176
17:00+23ю4455100 0.0 1006587
20:00+19ю3670100 0.0 1007176
20 мая, чт
чт2023:00+18ююз367581 0.0 1007168
02:00+17ю2280100 0.0 100543
05:00+16ю2283100 0.0 100537
08:00+20ю1267100 0.0 1006274
11:00+26ююз335044 0.0 1005713
14:00+30ююз44383 0.0 10031176
17:00+30ююз664057 0.0 10021487
20:00+23ююз6126643 0.0 1003429
21 мая, пт
пт2123:00+22ю377013 0.0 1004247
02:00+19ююв4778100 0.0 1004193
05:00+19юз11857 0.0 100323
08:00+23ссв12690 0.0 1005394
11:00+28в2249100 0.0 10051008
14:00+31юв1140100 0.0 10041367
17:00+30ююв3244100 0.0 1003934
20:00+26ююв2355100 0.0 100545
22 мая, сб
сб2223:00+25ю2259100 0.0 100639
02:00+23ююз2267100 0.0 100635
05:00+22ю226794 0.0 100615
08:00+25ююв2357100 0.0 1007268
11:00+30юв3541100 0.0 10071199
14:00+28ююв475296 0.0 1005711
17:00+28ю2355100 0.0 1005346
20:00+25ю2365100 0.0 1005156